^^
Saratoga-Weather Station Historical Data
Daily Summary for January 29, 2021 Units:  English    Metric   Both
Daily Weekly Monthly Yearly Custom
  High: Low: Average:
Temperature: 56.3 °F 50.5 °F 53.8 °F
Dew Point: 48.2 °F 45 °F 46.9 °F
Humidity: 81% 74% 77%
Wind Speed: 2mph 0mph 0.2mph
Wind Gust: 4mph - -
Wind- - SSE
Pressure: 30.2 in 30.2 in -
Precipitation: 0 in    
Historical Graphs
 
 
Tabular Data for January 29, 2021
Time Temperature Dew Point Pressure Wind Wind Speed Wind Gust Humidity Rainfall Rate (Hourly) solar
00:02 56.3 °F 48.2 °F 30.2 in Calm     74% 0 in 0 W/m2
00:07 56.1 °F 48 °F 30.2 in Calm   1 mph 74% 0 in 0 W/m2
00:12 55.9 °F 48.2 °F 30.2 in Calm     75% 0 in 0 W/m2
00:17 55.9 °F 48.2 °F 30.2 in Calm     75% 0 in 0 W/m2
00:22 55.8 °F 48 °F 30.2 in Calm     75% 0 in 0 W/m2
00:27 55.6 °F 47.8 °F 30.2 in Calm     75% 0 in 0 W/m2
00:32 55.6 °F 48.2 °F 30.2 in Calm     76% 0 in 0 W/m2
00:37 55.4 °F 48 °F 30.2 in Calm     76% 0 in 0 W/m2
00:42 55.2 °F 47.8 °F 30.2 in Calm     76% 0 in 0 W/m2
00:47 55.2 °F 47.8 °F 30.2 in Calm     76% 0 in 0 W/m2
00:52 55 °F 48 °F 30.2 in Calm     77% 0 in 0 W/m2
00:57 55 °F 47.7 °F 30.2 in Calm     76% 0 in 0 W/m2
01:02 54.9 °F 47.8 °F 30.2 in Calm     77% 0 in 0 W/m2
01:07 54.9 °F 47.8 °F 30.2 in Calm     77% 0 in 0 W/m2
01:12 54.9 °F 47.8 °F 30.2 in Calm     77% 0 in 0 W/m2
01:17 54.9 °F 47.8 °F 30.2 in Calm     77% 0 in 0 W/m2
01:22 54.7 °F 47.7 °F 30.2 in Calm     77% 0 in 0 W/m2
01:27 54.7 °F 47.7 °F 30.2 in Calm   1 mph 77% 0 in 0 W/m2
01:32 54.5 °F 47.5 °F 30.2 in Calm     77% 0 in 0 W/m2
01:37 54.5 °F 47.5 °F 30.2 in Calm     77% 0 in 0 W/m2
01:42 54.3 °F 47.3 °F 30.2 in Calm     77% 0 in 0 W/m2
01:47 54.1 °F 47.1 °F 30.2 in Calm     77% 0 in 0 W/m2
01:52 54.1 °F 47.1 °F 30.2 in Calm     77% 0 in 0 W/m2
01:57 54 °F 46.9 °F 30.2 in Calm     77% 0 in 0 W/m2
02:02 54 °F 46.9 °F 30.2 in Calm     77% 0 in 0 W/m2
02:07 53.8 °F 47.1 °F 30.2 in Calm     78% 0 in 0 W/m2
02:12 53.4 °F 46.8 °F 30.2 in Calm     78% 0 in 0 W/m2
02:17 53.4 °F 47.1 °F 30.2 in Calm   1 mph 79% 0 in 0 W/m2
02:22 53.2 °F 46.6 °F 30.2 in ESE 0.9 mph 2 mph 78% 0 in 0 W/m2
02:27 53.2 °F 46.6 °F 30.2 in Calm   1 mph 78% 0 in 0 W/m2
02:32 53.2 °F 46.6 °F 30.2 in Calm   1 mph 78% 0 in 0 W/m2
02:37 53.1 °F 46.4 °F 30.2 in ESE 0.9 mph 2 mph 78% 0 in 0 W/m2
02:42 52.9 °F 46.2 °F 30.2 in Calm   1 mph 78% 0 in 0 W/m2
02:47 52.7 °F 46.4 °F 30.2 in South 0.9 mph 4 mph 79% 0 in 0 W/m2
02:52 52.5 °F 45.9 °F 30.2 in South 0.9 mph 2 mph 78% 0 in 0 W/m2
02:57 52.7 °F 45.7 °F 30.2 in SW 2 mph 4 mph 77% 0 in 0 W/m2
03:02 52.9 °F 45.5 °F 30.2 in Calm   1 mph 76% 0 in 0 W/m2
03:07 52.9 °F 45.9 °F 30.2 in Calm     77% 0 in 0 W/m2
03:12 52.5 °F 45.5 °F 30.2 in Calm     77% 0 in 0 W/m2
03:17 52.3 °F 45.7 °F 30.2 in SSE 0.9 mph 1 mph 78% 0 in 0 W/m2
03:22 52 °F 45.7 °F 30.2 in Calm     79% 0 in 0 W/m2
03:27 51.6 °F 45.3 °F 30.2 in Calm   2 mph 79% 0 in 0 W/m2
03:32 51.3 °F 45.3 °F 30.2 in Calm   2 mph 80% 0 in 0 W/m2
03:37 51.1 °F 45.1 °F 30.2 in SSE 0.9 mph 2 mph 80% 0 in 0 W/m2
03:42 50.7 °F 45.1 °F 30.2 in Calm   2 mph 81% 0 in 0 W/m2
03:47 50.7 °F 45.1 °F 30.2 in East 0.9 mph 3 mph 81% 0 in 0 W/m2
03:52 50.5 °F 45 °F 30.2 in Calm   1 mph 81% 0 in 0 W/m2
Juneau County Weather
Compliments of Weather Underground - 2 mb